CSOVD LPPM-LPCS

Flight info

Callsign CSOVD
Flight time 1h 13m
Altitude 4000
Route MCHIQ DCT OMIRA DCT PCOVO DCT BRCAR DCT PALME DCT FTELH DCT CVAPO DCT BUGIO
Aircraft M7/L-VGD/C

Departure

Time 2026-04-12 07:05
Airport Portimão Airport (LPPM)

Arrival

Time 2026-04-12 08:18
Airport Cascais Airport (LPCS)
Time Latitude Longitude Altitude Speed Heading
2026-04-12 06:53 37.14808 -8.58238 14 ft 0 kts 290°
2026-04-12 07:01 37.14808 -8.58239 14 ft 1 kts 345°
2026-04-12 07:01 37.14811 -8.58236 19 ft 2 kts 77°
2026-04-12 07:01 37.14810 -8.58187 20 ft 10 kts 111°
2026-04-12 07:01 37.14785 -8.58097 21 ft 11 kts 110°
2026-04-12 07:02 37.14778 -8.58072 20 ft 0 kts 105°
2026-04-12 07:02 37.14798 -8.58034 20 ft 8 kts 21°
2026-04-12 07:03 37.14829 -8.58021 19 ft 5 kts 18°
2026-04-12 07:03 37.14843 -8.58026 20 ft 4 kts 278°
2026-04-12 07:03 37.14850 -8.58066 20 ft 0 kts 284°
2026-04-12 07:04 37.14901 -8.58288 38 ft 56 kts 294°
2026-04-12 07:04 37.15036 -8.58889 220 ft 80 kts 295°
2026-04-12 07:05 37.15146 -8.59517 622 ft 73 kts 297°
2026-04-12 07:05 37.15323 -8.60167 738 ft 91 kts 297°
2026-04-12 07:05 37.15547 -8.60856 925 ft 87 kts 307°
2026-04-12 07:05 37.15751 -8.61570 1078 ft 84 kts 303°
2026-04-12 07:06 37.15995 -8.62264 1168 ft 87 kts 309°
2026-04-12 07:06 37.16307 -8.62911 1306 ft 87 kts 315°
2026-04-12 07:06 37.16720 -8.63382 1428 ft 77 kts 346°
2026-04-12 07:06 37.17230 -8.63205 1573 ft 80 kts 12°
2026-04-12 07:07 37.17705 -8.62955 1807 ft 69 kts 11°
2026-04-12 07:07 37.18162 -8.62718 1887 ft 75 kts
2026-04-12 07:07 37.18660 -8.62458 1968 ft 78 kts 14°
2026-04-12 07:07 37.19143 -8.62060 1966 ft 87 kts 24°
2026-04-12 07:08 37.19602 -8.61638 2084 ft 81 kts 22°
2026-04-12 07:08 37.20036 -8.61199 2120 ft 78 kts 26°
2026-04-12 07:08 37.20386 -8.60642 2266 ft 76 kts 33°
2026-04-12 07:08 37.20677 -8.60042 2360 ft 90 kts 47°
2026-04-12 07:09 37.20920 -8.59342 2473 ft 81 kts 34°
2026-04-12 07:09 37.21357 -8.58997 2495 ft 74 kts 15°
2026-04-12 07:09 37.21798 -8.58704 2678 ft 66 kts 11°
2026-04-12 07:09 37.22219 -8.58497 2824 ft 65 kts
2026-04-12 07:10 37.22606 -8.58277 3058 ft 57 kts 13°
2026-04-12 07:10 37.22950 -8.58091 3279 ft 51 kts
2026-04-12 07:10 37.23332 -8.57979 3294 ft 60 kts
2026-04-12 07:10 37.23756 -8.57986 3311 ft 63 kts 356°
2026-04-12 07:11 37.24182 -8.57903 3233 ft 66 kts 12°
2026-04-12 07:11 37.24629 -8.57698 3175 ft 70 kts
2026-04-12 07:11 37.25090 -8.57513 3108 ft 72 kts
2026-04-12 07:11 37.25560 -8.57324 3167 ft 69 kts 10°
2026-04-12 07:12 37.26013 -8.57148 3174 ft 68 kts
2026-04-12 07:12 37.26462 -8.56964 3188 ft 69 kts 10°
2026-04-12 07:12 37.26903 -8.56771 3239 ft 67 kts
2026-04-12 07:12 37.27365 -8.56676 3177 ft 68 kts
2026-04-12 07:13 37.27812 -8.56566 3216 ft 63 kts 360°
2026-04-12 07:13 37.28252 -8.56509 3130 ft 68 kts
2026-04-12 07:13 37.28673 -8.56351 3088 ft 65 kts
2026-04-12 07:13 37.29120 -8.56201 2907 ft 69 kts
2026-04-12 07:14 37.29585 -8.56008 2950 ft 64 kts 10°
2026-04-12 07:14 37.29943 -8.55799 3166 ft 56 kts
2026-04-12 07:14 37.30334 -8.55686 3372 ft 59 kts
2026-04-12 07:14 37.30716 -8.55761 3538 ft 59 kts 342°
2026-04-12 07:15 37.31084 -8.55988 3576 ft 58 kts 349°
2026-04-12 07:15 37.31500 -8.56018 3477 ft 62 kts
2026-04-12 07:15 37.31924 -8.55848 3548 ft 64 kts
2026-04-12 07:15 37.32357 -8.55660 3588 ft 68 kts 12°
2026-04-12 07:16 37.32782 -8.55424 3598 ft 68 kts 14°
2026-04-12 07:16 37.33205 -8.55153 3758 ft 69 kts 14°
2026-04-12 07:16 37.33649 -8.54907 3907 ft 71 kts 15°
2026-04-12 07:16 37.34096 -8.54736 3973 ft 69 kts
2026-04-12 07:17 37.34575 -8.54733 3885 ft 70 kts 355°
2026-04-12 07:17 37.35039 -8.54840 3884 ft 68 kts 350°
2026-04-12 07:17 37.35499 -8.55100 3979 ft 73 kts 342°
2026-04-12 07:17 37.35951 -8.55392 4064 ft 74 kts 342°
2026-04-12 07:18 37.36435 -8.55697 4065 ft 81 kts 342°
2026-04-12 07:18 37.36957 -8.56008 4095 ft 85 kts 342°
2026-04-12 07:18 37.37501 -8.56328 4071 ft 89 kts 343°
2026-04-12 07:18 37.38108 -8.56650 4093 ft 99 kts 345°
2026-04-12 07:19 37.38757 -8.56982 4088 ft 102 kts 343°
2026-04-12 07:19 37.39408 -8.57334 4076 ft 102 kts 343°
2026-04-12 07:19 37.40066 -8.57692 4044 ft 103 kts 344°
2026-04-12 07:19 37.40718 -8.58045 4024 ft 101 kts 344°
2026-04-12 07:20 37.41361 -8.58382 4016 ft 99 kts 344°
2026-04-12 07:20 37.41989 -8.58727 4011 ft 98 kts 345°
2026-04-12 07:20 37.42612 -8.59072 4023 ft 97 kts 343°
2026-04-12 07:20 37.43237 -8.59410 4082 ft 101 kts 343°
2026-04-12 07:21 37.43890 -8.59756 4106 ft 103 kts 343°
2026-04-12 07:21 37.44549 -8.60112 4094 ft 103 kts 342°
2026-04-12 07:21 37.45202 -8.60469 4072 ft 102 kts 343°
2026-04-12 07:21 37.45851 -8.60824 4047 ft 101 kts 342°
2026-04-12 07:22 37.46490 -8.61174 4037 ft 100 kts 343°
2026-04-12 07:22 37.47124 -8.61518 4026 ft 99 kts 343°
2026-04-12 07:22 37.47745 -8.61854 4010 ft 96 kts 343°
2026-04-12 07:22 37.48355 -8.62185 4024 ft 96 kts 343°
2026-04-12 07:23 37.48969 -8.62519 4032 ft 97 kts 343°
2026-04-12 07:23 37.49589 -8.62857 4033 ft 97 kts 343°
2026-04-12 07:23 37.50216 -8.63189 4037 ft 98 kts 344°
2026-04-12 07:23 37.50835 -8.63525 4011 ft 96 kts 343°
2026-04-12 07:24 37.51442 -8.63861 4012 ft 94 kts 343°
2026-04-12 07:24 37.52048 -8.64192 4029 ft 96 kts 343°
2026-04-12 07:24 37.52660 -8.64523 4032 ft 96 kts 343°
2026-04-12 07:24 37.53270 -8.64852 4025 ft 95 kts 343°
2026-04-12 07:25 37.53879 -8.65182 4021 ft 95 kts 343°
2026-04-12 07:25 37.54483 -8.65513 4036 ft 96 kts 343°
2026-04-12 07:25 37.55089 -8.65840 4030 ft 96 kts 343°
2026-04-12 07:25 37.55700 -8.66173 4021 ft 95 kts 343°
2026-04-12 07:26 37.56312 -8.66509 4031 ft 96 kts 343°
2026-04-12 07:26 37.56932 -8.66841 4036 ft 97 kts 344°
2026-04-12 07:26 37.57557 -8.67181 4040 ft 99 kts 343°
2026-04-12 07:26 37.58187 -8.67525 4017 ft 99 kts 343°
2026-04-12 07:27 37.58804 -8.67872 3829 ft 96 kts 344°
2026-04-12 07:27 37.59209 -8.68083 3676 ft 94 kts 345°
2026-04-12 07:27 37.59815 -8.68360 3508 ft 91 kts 349°
2026-04-12 07:27 37.60407 -8.68585 3364 ft 88 kts 344°
2026-04-12 07:28 37.60948 -8.68900 3276 ft 85 kts 343°
2026-04-12 07:28 37.61500 -8.69237 3088 ft 90 kts 340°
2026-04-12 07:28 37.62045 -8.69601 3016 ft 87 kts 341°
2026-04-12 07:28 37.62607 -8.69905 2963 ft 87 kts 345°
2026-04-12 07:29 37.63223 -8.70156 2728 ft 93 kts 346°
2026-04-12 07:29 37.63815 -8.70432 2629 ft 91 kts 344°
2026-04-12 07:29 37.64426 -8.70689 2518 ft 92 kts 347°
2026-04-12 07:29 37.65037 -8.70930 2545 ft 95 kts 346°
2026-04-12 07:30 37.65673 -8.71173 2542 ft 98 kts 346°
2026-04-12 07:30 37.66325 -8.71431 2556 ft 99 kts 346°
2026-04-12 07:30 37.66988 -8.71693 2570 ft 100 kts 345°
2026-04-12 07:30 37.67658 -8.71952 2563 ft 101 kts 346°
2026-04-12 07:31 37.68337 -8.72215 2566 ft 103 kts 346°
2026-04-12 07:31 37.69024 -8.72482 2557 ft 103 kts 346°
2026-04-12 07:31 37.69709 -8.72739 2551 ft 102 kts 346°
2026-04-12 07:31 37.70393 -8.72990 2549 ft 103 kts 346°
2026-04-12 07:32 37.71077 -8.73234 2532 ft 102 kts 346°
2026-04-12 07:32 37.71751 -8.73476 2535 ft 100 kts 346°
2026-04-12 07:32 37.72425 -8.73717 2539 ft 101 kts 346°
2026-04-12 07:32 37.73095 -8.73961 2538 ft 100 kts 346°
2026-04-12 07:33 37.73760 -8.74203 2539 ft 102 kts 346°
2026-04-12 07:33 37.74435 -8.74448 2523 ft 100 kts 346°
2026-04-12 07:33 37.75103 -8.74694 2525 ft 100 kts 346°
2026-04-12 07:33 37.75769 -8.74936 2533 ft 100 kts 346°
2026-04-12 07:34 37.76439 -8.75177 2529 ft 100 kts 346°
2026-04-12 07:34 37.77112 -8.75417 2536 ft 101 kts 346°
2026-04-12 07:34 37.77790 -8.75663 2533 ft 101 kts 346°
2026-04-12 07:34 37.78470 -8.75913 2546 ft 102 kts 346°
2026-04-12 07:35 37.79154 -8.76167 2542 ft 103 kts 346°
2026-04-12 07:35 37.79838 -8.76426 2540 ft 102 kts 346°
2026-04-12 07:35 37.80514 -8.76683 2536 ft 101 kts 346°
2026-04-12 07:35 37.81188 -8.76939 2545 ft 101 kts 346°
2026-04-12 07:36 37.81818 -8.77355 2561 ft 105 kts 333°
2026-04-12 07:36 37.82436 -8.77853 2551 ft 106 kts 335°
2026-04-12 07:36 37.83071 -8.78327 2556 ft 106 kts 335°
2026-04-12 07:36 37.83706 -8.78808 2551 ft 107 kts 335°
2026-04-12 07:37 37.84345 -8.79292 2556 ft 108 kts 335°
2026-04-12 07:37 37.84972 -8.79778 2540 ft 107 kts 334°
2026-04-12 07:37 37.85602 -8.80266 2534 ft 106 kts 335°
2026-04-12 07:37 37.86225 -8.80750 2537 ft 105 kts 335°
2026-04-12 07:38 37.86844 -8.81229 2536 ft 104 kts 335°
2026-04-12 07:38 37.87460 -8.81707 2539 ft 103 kts 335°
2026-04-12 07:38 37.88073 -8.82181 2542 ft 103 kts 335°
2026-04-12 07:38 37.88683 -8.82654 2539 ft 103 kts 335°
2026-04-12 07:39 37.89292 -8.83125 2540 ft 102 kts 335°
2026-04-12 07:39 37.89897 -8.83595 2539 ft 102 kts 335°
2026-04-12 07:39 37.90501 -8.84064 2541 ft 102 kts 335°
2026-04-12 07:39 37.91102 -8.84530 2542 ft 101 kts 335°
2026-04-12 07:40 37.91703 -8.84996 2544 ft 102 kts 335°
2026-04-12 07:40 37.92308 -8.85465 2549 ft 102 kts 335°
2026-04-12 07:40 37.92919 -8.85938 2549 ft 103 kts 335°
2026-04-12 07:40 37.93533 -8.86414 2551 ft 104 kts 335°
2026-04-12 07:41 37.94146 -8.86892 2548 ft 104 kts 335°
2026-04-12 07:41 37.94754 -8.87363 2548 ft 104 kts 335°
2026-04-12 07:41 37.95377 -8.87810 2538 ft 101 kts 342°
2026-04-12 07:41 37.96074 -8.87798 2574 ft 104 kts
2026-04-12 07:42 37.96772 -8.87553 2566 ft 104 kts
2026-04-12 07:42 37.97473 -8.87324 2551 ft 104 kts
2026-04-12 07:42 37.98171 -8.87097 2546 ft 103 kts
2026-04-12 07:43 38.00254 -8.86429 2541 ft 102 kts
2026-04-12 07:43 38.00935 -8.86212 2545 ft 101 kts
2026-04-12 07:43 38.01612 -8.85997 2541 ft 100 kts
2026-04-12 07:44 38.02288 -8.85783 2550 ft 100 kts
2026-04-12 07:44 38.02969 -8.85566 2555 ft 101 kts
2026-04-12 07:44 38.03651 -8.85349 2558 ft 101 kts
2026-04-12 07:44 38.04334 -8.85131 2556 ft 101 kts
2026-04-12 07:45 38.05007 -8.84917 2552 ft 101 kts
2026-04-12 07:45 38.05690 -8.84699 2551 ft 101 kts
2026-04-12 07:45 38.06375 -8.84481 2548 ft 101 kts
2026-04-12 07:45 38.07059 -8.84264 2548 ft 101 kts
2026-04-12 07:46 38.07738 -8.84046 2545 ft 100 kts
2026-04-12 07:46 38.08413 -8.83831 2541 ft 99 kts
2026-04-12 07:46 38.09079 -8.83619 2539 ft 98 kts
2026-04-12 07:46 38.09738 -8.83409 2542 ft 97 kts
2026-04-12 07:47 38.10395 -8.83199 2551 ft 97 kts
2026-04-12 07:47 38.11053 -8.82991 2555 ft 98 kts
2026-04-12 07:47 38.11718 -8.82779 2555 ft 99 kts
2026-04-12 07:47 38.12385 -8.82566 2553 ft 99 kts
2026-04-12 07:48 38.13052 -8.82353 2554 ft 99 kts
2026-04-12 07:48 38.13722 -8.82140 2559 ft 100 kts
2026-04-12 07:48 38.14398 -8.81924 2559 ft 101 kts
2026-04-12 07:48 38.15077 -8.81707 2550 ft 100 kts
2026-04-12 07:49 38.15743 -8.81493 2553 ft 100 kts
2026-04-12 07:49 38.16410 -8.81280 2553 ft 98 kts
2026-04-12 07:49 38.17069 -8.81069 2558 ft 97 kts
2026-04-12 07:49 38.17726 -8.80860 2553 ft 98 kts
2026-04-12 07:50 38.18386 -8.80649 2555 ft 98 kts
2026-04-12 07:50 38.19048 -8.80437 2550 ft 98 kts
2026-04-12 07:50 38.19707 -8.80227 2541 ft 97 kts
2026-04-12 07:50 38.20361 -8.80019 2542 ft 97 kts
2026-04-12 07:51 38.21012 -8.79810 2548 ft 97 kts
2026-04-12 07:51 38.21668 -8.79601 2554 ft 98 kts
2026-04-12 07:51 38.22335 -8.79389 2551 ft 99 kts
2026-04-12 07:51 38.23005 -8.79173 2551 ft 100 kts
2026-04-12 07:52 38.23674 -8.78959 2552 ft 99 kts
2026-04-12 07:52 38.24337 -8.78746 2552 ft 98 kts
2026-04-12 07:52 38.24997 -8.78535 2554 ft 98 kts
2026-04-12 07:52 38.25664 -8.78321 2554 ft 99 kts
2026-04-12 07:53 38.26333 -8.78107 2552 ft 99 kts
2026-04-12 07:53 38.27000 -8.77892 2543 ft 98 kts
2026-04-12 07:53 38.27666 -8.77681 2557 ft 99 kts
2026-04-12 07:53 38.28340 -8.77467 2555 ft 100 kts
2026-04-12 07:54 38.29018 -8.77247 2566 ft 101 kts
2026-04-12 07:54 38.29707 -8.77026 2561 ft 102 kts
2026-04-12 07:54 38.30396 -8.76805 2552 ft 102 kts
2026-04-12 07:54 38.31079 -8.76585 2550 ft 101 kts
2026-04-12 07:55 38.31746 -8.76370 2538 ft 99 kts
2026-04-12 07:55 38.32417 -8.76154 2544 ft 100 kts
2026-04-12 07:55 38.33089 -8.76107 2547 ft 97 kts 346°
2026-04-12 07:55 38.33694 -8.76506 2548 ft 99 kts 336°
2026-04-12 07:56 38.34291 -8.76944 2556 ft 99 kts 337°
2026-04-12 07:56 38.34893 -8.77381 2557 ft 100 kts 337°
2026-04-12 07:56 38.35499 -8.77818 2552 ft 100 kts 337°
2026-04-12 07:56 38.36103 -8.78257 2549 ft 100 kts 337°
2026-04-12 07:57 38.36710 -8.78689 2547 ft 100 kts 338°
2026-04-12 07:57 38.37319 -8.79120 2560 ft 101 kts 338°
2026-04-12 07:57 38.37931 -8.79558 2546 ft 100 kts 337°
2026-04-12 07:57 38.38541 -8.79987 2559 ft 101 kts 337°
2026-04-12 07:58 38.39145 -8.80379 2419 ft 97 kts 340°
2026-04-12 07:58 38.39771 -8.80746 2222 ft 100 kts 340°
2026-04-12 07:58 38.40419 -8.81076 2015 ft 100 kts 343°
2026-04-12 07:58 38.41074 -8.81419 1807 ft 103 kts 338°
2026-04-12 07:59 38.41706 -8.81825 1681 ft 102 kts 339°
2026-04-12 07:59 38.42363 -8.82107 1622 ft 100 kts 347°
2026-04-12 07:59 38.43051 -8.82324 1420 ft 103 kts 348°
2026-04-12 07:59 38.43714 -8.82548 1474 ft 98 kts 347°
2026-04-12 08:00 38.44353 -8.82842 1504 ft 104 kts 330°
2026-04-12 08:00 38.44848 -8.83578 1520 ft 113 kts 315°
2026-04-12 08:00 38.45356 -8.84358 1526 ft 115 kts 322°
2026-04-12 08:00 38.45949 -8.85024 1498 ft 112 kts 327°
2026-04-12 08:01 38.46575 -8.85606 1489 ft 110 kts 331°
2026-04-12 08:01 38.47218 -8.86129 1487 ft 109 kts 333°
2026-04-12 08:01 38.47864 -8.86616 1487 ft 109 kts 335°
2026-04-12 08:01 38.48526 -8.87099 1491 ft 110 kts 336°
2026-04-12 08:02 38.49192 -8.87577 1491 ft 110 kts 336°
2026-04-12 08:02 38.49861 -8.88055 1496 ft 110 kts 336°
2026-04-12 08:02 38.50532 -8.88531 1494 ft 111 kts 336°
2026-04-12 08:02 38.51165 -8.89045 1497 ft 114 kts 325°
2026-04-12 08:03 38.51529 -8.89992 1497 ft 130 kts 289°
2026-04-12 08:03 38.51528 -8.91175 1477 ft 135 kts 282°
2026-04-12 08:03 38.51513 -8.92355 1467 ft 131 kts 281°
2026-04-12 08:03 38.51492 -8.93488 1450 ft 124 kts 282°
2026-04-12 08:04 38.51475 -8.94576 1436 ft 122 kts 282°
2026-04-12 08:04 38.51480 -8.95649 1485 ft 122 kts 284°
2026-04-12 08:04 38.51456 -8.96754 1497 ft 126 kts 281°
2026-04-12 08:04 38.51436 -8.97879 1526 ft 128 kts 283°
2026-04-12 08:05 38.51433 -8.99008 1466 ft 126 kts 282°
2026-04-12 08:05 38.51414 -9.00102 1475 ft 126 kts 283°
2026-04-12 08:05 38.51415 -9.01253 1512 ft 130 kts 283°
2026-04-12 08:05 38.51415 -9.02413 1511 ft 131 kts 282°
2026-04-12 08:06 38.51408 -9.03569 1493 ft 130 kts 282°
2026-04-12 08:06 38.51383 -9.04728 1475 ft 130 kts 282°
2026-04-12 08:06 38.51375 -9.05867 1473 ft 127 kts 283°
2026-04-12 08:06 38.51377 -9.06986 1470 ft 125 kts 282°
2026-04-12 08:07 38.51361 -9.08086 1470 ft 123 kts 281°
2026-04-12 08:07 38.51349 -9.09179 1497 ft 124 kts 282°
2026-04-12 08:07 38.51345 -9.10285 1510 ft 125 kts 282°
2026-04-12 08:07 38.51335 -9.11393 1522 ft 128 kts 282°
2026-04-12 08:08 38.51333 -9.12526 1509 ft 127 kts 283°
2026-04-12 08:08 38.51329 -9.13659 1515 ft 128 kts 282°
2026-04-12 08:08 38.51313 -9.14799 1513 ft 128 kts 282°
2026-04-12 08:08 38.51297 -9.15933 1504 ft 127 kts 283°
2026-04-12 08:09 38.51457 -9.16980 1505 ft 114 kts 310°
2026-04-12 08:09 38.52031 -9.17567 1496 ft 104 kts 342°
2026-04-12 08:09 38.52727 -9.17807 1498 ft 104 kts 345°
2026-04-12 08:09 38.53416 -9.18068 1490 ft 103 kts 345°
2026-04-12 08:10 38.54101 -9.18319 1492 ft 102 kts 346°
2026-04-12 08:10 38.54790 -9.18557 1513 ft 103 kts 346°
2026-04-12 08:10 38.55489 -9.18800 1518 ft 105 kts 346°
2026-04-12 08:10 38.56201 -9.19053 1518 ft 107 kts 346°
2026-04-12 08:11 38.56923 -9.19311 1509 ft 108 kts 345°
2026-04-12 08:11 38.57563 -9.19820 1508 ft 110 kts 322°
2026-04-12 08:11 38.58076 -9.20471 1492 ft 100 kts 323°
2026-04-12 08:11 38.58571 -9.21062 1487 ft 96 kts 324°
2026-04-12 08:12 38.59056 -9.21634 1488 ft 94 kts 325°
2026-04-12 08:12 38.59536 -9.22198 1491 ft 94 kts 325°
2026-04-12 08:12 38.60014 -9.22760 1494 ft 93 kts 325°
2026-04-12 08:12 38.60487 -9.23320 1494 ft 93 kts 325°
2026-04-12 08:13 38.60959 -9.23879 1498 ft 92 kts 325°
2026-04-12 08:13 38.61432 -9.24438 1498 ft 92 kts 325°
2026-04-12 08:13 38.61903 -9.24995 1498 ft 92 kts 325°
2026-04-12 08:13 38.62374 -9.25552 1498 ft 92 kts 325°
2026-04-12 08:14 38.62845 -9.26110 1502 ft 92 kts 324°
2026-04-12 08:14 38.63316 -9.26667 1499 ft 92 kts 325°
2026-04-12 08:14 38.63791 -9.27231 1471 ft 95 kts 324°
2026-04-12 08:14 38.64273 -9.27833 1384 ft 99 kts 324°
2026-04-12 08:15 38.64752 -9.28467 1285 ft 98 kts 323°
2026-04-12 08:15 38.65234 -9.29096 1162 ft 99 kts 322°
2026-04-12 08:15 38.65684 -9.29712 1137 ft 92 kts 320°
2026-04-12 08:15 38.66087 -9.30331 1127 ft 93 kts 314°
2026-04-12 08:16 38.66445 -9.31017 1054 ft 90 kts 314°
2026-04-12 08:16 38.66769 -9.31685 970 ft 86 kts 310°
2026-04-12 08:16 38.67099 -9.32281 941 ft 79 kts 319°
2026-04-12 08:16 38.67437 -9.32854 873 ft 82 kts 315°
2026-04-12 08:17 38.67744 -9.33435 739 ft 79 kts 316°
2026-04-12 08:17 38.68083 -9.33936 581 ft 71 kts 338°
2026-04-12 08:17 38.68513 -9.34178 514 ft 63 kts 348°
2026-04-12 08:17 38.68967 -9.34239 531 ft 69 kts 355°
2026-04-12 08:18 38.69391 -9.34379 537 ft 51 kts 340°
2026-04-12 08:18 38.69690 -9.34532 521 ft 44 kts 349°
2026-04-12 08:18 38.69991 -9.34619 556 ft 44 kts 343°
2026-04-12 08:18 38.70297 -9.34765 580 ft 48 kts 346°
2026-04-12 08:19 38.70633 -9.34856 542 ft 50 kts 345°
2026-04-12 08:19 38.70956 -9.34962 514 ft 48 kts 352°
2026-04-12 08:19 38.71263 -9.35083 437 ft 40 kts 345°
2026-04-12 08:19 38.71554 -9.35180 394 ft 46 kts 351°
2026-04-12 08:20 38.71851 -9.35290 335 ft 44 kts 344°
2026-04-12 08:20 38.72148 -9.35387 304 ft 39 kts 340°
2026-04-12 08:20 38.72297 -9.35446 308 ft 8 kts 346°
2026-04-12 08:20 38.72340 -9.35461 309 ft 7 kts 343°
2026-04-12 08:21 38.72345 -9.35513 308 ft 12 kts 241°
2026-04-12 08:21 38.72333 -9.35566 305 ft 0 kts 255°
2026-04-12 08:21 38.72332 -9.35570 305 ft 3 kts 255°
2026-04-12 08:22 38.72325 -9.35601 304 ft 1 kts 252°
2026-04-12 08:22 38.72311 -9.35659 302 ft 13 kts 254°
2026-04-12 08:22 38.72301 -9.35710 301 ft 2 kts 256°
2026-04-12 08:22 38.72297 -9.35727 302 ft 5 kts 243°
2026-04-12 08:23 38.72243 -9.35743 300 ft 8 kts 177°
2026-04-12 08:23 38.72219 -9.35742 299 ft 5 kts 185°
2026-04-12 08:23 38.72196 -9.35780 298 ft 0 kts 360°